SCP
0 0 0 0 0 0 0 0 0 0 0 0 0 0 0 0 0 0 0 0 0 0 0 0 0 0 0 0 0 0 0 0 0 0 0 0 0 0 0 0 0 0 0
0 0 0 0 0 0 0 0 0 0 0 0 0 0 0 0 0 0 0 0 0 0 0 0 0 0 0 0 0 0 0 0 0 0 0 0 0 0 0 0 0 0 0
0 0 0 0 0 0 0 0 0 0 0 0 0 0 0 0 0 0 0 0 0 0 0 0 0 0 0 0 0 0 0 0 0 0 0 0 0 0 0 0 0 0 0
0 0 0 0 0 0 0 0 0 0 0 0 0 0 0 0 0 0 0 0 0 0 0 0 0 0 0 0 0 0 0 0 0 0 0 0 0 0 0 0 0 0 0
0 0 0 0 0 0 0 0 0 0 0 0 0 0 0 0 0 0 0 0 0 0 0 0 0 0 0 0 0 0 0 0 0 0 0 0 0 0 0 0 0 0 0
0 0 0 0 0 0 0 0 0 0 0 0 0 0 0 0 0 0 0 0 0 0 0 0 0 0 0 0 0 0 0 0 0 0 0 0 0 0 0 0 0 0 0
0 0 0 0 0 0 0 0 0 0 0 0 0 0 0 0 0 0 0 0 0 0 0 0 0 0 0 0 0 0 0 0 0 0 0 0 0 0 0 0 0 0 0
0 0 0 0 0 0 0 0 0 0 0 0 0 0 0 0 0 0 0 0 0 0 0 0 0 0 0 0 0 0 0 0 0 0 0 0 0 0 0 0 0 0 0
0 0 0 0 0 0 0 0 0 0 0 0 0 0 0 0 0 0 0 0 0 0 0 0 0 0 0 0 0 0 0 0 0 0 0 0 0 0 0 0 0 0 0
0 0 0 0 0 0 0 0 0 0 0 0 0 0 0 0 0 0 0 0 0 0 0 0 0 0 0 0 0 0 0 0 0 0 0 0 0 0 0 0 0 0 0
0 0 0 0 0 0 0 0 0 0 0 0 0 0 0 0 0 0 0 0 0 0 0 0 0 0 0 0 0 0 0 0 0 0 0 0 0 0 0 0 0 0 0
0 0 0 0 0 0 0 0 0 0 0 0 0 0 0 0 0 0 0 0 0 0 0 0 0 0 0 0 0 0 0 0 0 0 0 0 0 0 0 0 0 0 0
0 0 0 0 0 0 0 0 0 0 0 0 0 0 0 0 0 0 0 0 0 0 0 0 0 0 0 0 0 0 0 0 0 0 0 0 0 0 0 0 0 0 0
0 0 0 0 0 0 0 0 0 0 0 0 0 0 0 0 0 0 0 0 0 0 0 0 0 0 0 0 0 0 0 0 0 0 0 0 0 0 0 0 0 0 0
0 0 0 0 0 0 0 0 0 0 0 0 0 0 0 0 0 0 0 0 0 0 0 0 0 0 0 0 0 0 0 0 0 0 0 0 0 0 0 0 0 0 0
0 0 0 0 0 0 0 0 0 0 0 0 0 0 0 0 0 0 0 0 0 0 0 0 0 0 0 0 0 0 0 0 0 0 0 0 0 0 0 0 0 0 0
0 0 0 0 0 0 0 0 0 0 0 0 0 0 0 0 0 0 0 0 0 0 0 0 0 0 0 0 0 0 0 0 0 0 0 0 0 0 0 0 0 0 0
0 0 0 0 0 0 0 0 0 0 0 0 0 0 0 0 0 0 0 0 0 0 0 0 0 0 0 0 0 0 0 0 0 0 0 0 0 0 0 0 0 0 0
0 0 0 0 0 0 0 0 0 0 0 0 0 0 0 0 0 0 0 0 0 0 0 0 0 0 0 0 0 0 0 0 0 0 0 0 0 0 0 0 0 0 0
0 0 0 0 0 0 0 0 0 0 0 0 0 0 0 0 0 0 0 0 0 0 0 0 0 0 0 0 0 0 0 0 0 0 0 0 0 0 0 0 0 0 0
0 0 0 0 0 0 0 0 0 0 0 0 0 0 0 0 0 0 0 0 0 0 0 0 0 0 0 0 0 0 0 0 0 0 0 0 0 0 0 0 0 0 0
0 0 0 0 0 0 0 0 0 0 0 0 0 0 0 0 0 0 0 0 0 0 0 0 0 0 0 0 0 0 0 0 0 0 0 0 0 0 0 0 0 0 0
0 0 0 0 0 0 0 0 0 0 0 0 0 0 0 0 0 0 0 0 0 0 0 0 0 0 0 0 0 0 0 0 0 0 0 0 0 0 0 0 0 0 0
0 0 0 0 0 0 0 0 0 0 0 0 0 0 0 0 0 0 0 0 0 0 0 0 0 0 0 0 0 0 0 0 0 0 0 0 0 0 0 0 0 0 0
0 0 0 0 0 0 0 0 0 0 0 0 0 0 0 0 0 0 0 0 0 0 0 0 0 0 0 0 0 0 0 0 0 0 0 0 0 0 0 0 0 0 0
0 0 0 0 0 0 0 0 0 0 0 0 0 0 0 0 0 0 0 0 0 0 0 -0 0 0 0 0 0 0 0 0 0 0 0 0 0 0 0 0 0 0 0
Wind_Speed
2 4 5 6 7 6 5 5 6 5 4 3 2 3 3 3 4 4 5 6 6 6 5 3 4 3 3 4 4 3 4 3 2 4 6 6 6 6 5 4 4 4 5
3 5 7 7 8 8 8 8 7 5 4 3 3 3 4 3 2 1 3 4 4 4 3 3 3 3 3 5 5 5 4 3 2 2 5 6 4 4 5 3 5 6 3
6 7 9 9 9 9 9 8 8 7 6 5 4 3 3 2 2 2 2 3 3 3 2 3 3 3 3 4 6 5 5 6 4 2 4 5 7 5 4 5 5 4 3
11 11 11 12 12 10 9 10 9 8 6 5 6 5 3 1 0 1 1 2 3 3 3 3 3 2 2 3 4 4 4 5 7 4 5 7 7 8 7 3 3 5 5
13 14 13 12 11 9 8 7 7 6 4 4 5 5 3 0 1 2 3 4 4 4 4 4 3 3 3 4 4 5 5 4 7 7 5 6 6 7 8 12 7 5 5
12 13 11 11 9 7 6 5 6 5 5 5 4 3 2 1 3 4 4 4 3 4 5 5 4 4 4 5 6 6 7 7 9 8 7 7 7 6 7 11 14 10 7
9 9 9 8 6 5 5 5 5 5 4 4 4 4 3 3 3 3 4 5 5 5 6 6 5 5 5 7 7 8 8 8 10 10 8 8 9 7 7 9 13 14 8
6 7 6 6 5 5 5 4 4 4 4 4 5 5 6 4 3 4 4 5 5 6 7 6 7 8 8 10 9 9 10 9 9 11 11 9 9 8 8 8 10 14 10
6 6 5 5 5 5 5 4 4 5 7 7 7 7 7 6 5 5 5 5 6 7 7 8 9 10 10 11 11 9 11 10 11 11 12 11 9 9 9 8 9 10 12
5 5 5 6 5 5 6 7 7 6 5 6 6 6 5 5 5 5 6 7 7 7 9 10 10 11 11 11 11 10 11 12 11 10 12 12 10 8 8 8 8 8 10
5 5 5 5 6 6 6 6 6 6 6 6 6 6 6 6 6 6 7 8 8 9 10 11 12 12 12 12 10 11 12 13 13 12 12 13 11 9 8 8 9 9 9
3 4 4 4 5 5 5 5 6 6 6 6 7 8 8 8 8 9 9 9 10 10 11 11 12 13 12 11 12 13 12 12 13 12 12 14 11 12 10 9 9 9 8
4 4 3 4 5 5 6 6 7 7 7 7 8 8 8 9 9 10 10 9 10 11 11 11 11 11 11 11 11 11 11 11 12 12 13 14 13 14 11 11 10 9 9
5 4 4 5 5 6 7 8 8 7 8 9 9 9 9 9 10 10 9 10 10 11 10 9 9 9 10 10 10 11 11 11 11 11 12 13 13 13 12 11 11 10 9
7 6 5 4 5 6 7 7 8 8 9 10 10 10 10 9 9 9 9 10 10 9 8 8 8 8 8 8 11 11 11 12 11 11 11 12 16 17 13 10 8 10 8
8 7 4 5 6 8 9 10 10 10 10 10 11 11 10 10 10 10 10 9 8 7 7 8 9 10 9 13 17 15 11 11 11 11 12 12 13 16 18 17 15 13 10
8 6 4 5 7 7 8 10 10 11 11 11 11 11 10 11 11 10 9 7 6 7 9 9 10 11 12 17 18 19 12 10 10 11 11 10 11 15 12 13 14 13 14
5 3 5 6 6 6 8 9 10 11 11 11 11 11 10 10 9 8 7 7 6 8 8 9 9 9 12 18 18 18 10 9 10 11 11 12 14 13 14 9 6 6 7
2 2 2 4 6 8 9 10 11 10 10 10 10 10 9 8 8 8 8 7 7 8 8 7 8 9 11 16 19 16 8 9 11 11 12 14 13 18 18 8 2 4 5
2 1 3 4 6 7 8 9 10 10 10 10 10 9 8 8 8 8 8 6 5 6 7 8 8 9 10 15 19 18 7 9 10 10 12 16 17 19 19 10 7 10 10
0 2 4 5 6 7 7 9 9 10 10 9 8 8 8 8 7 7 6 6 6 7 8 9 9 10 12 15 19 20 9 8 9 9 10 10 18 18 18 14 10 12 11
2 3 4 5 6 6 6 8 9 10 9 7 7 8 8 8 7 7 7 7 7 7 8 9 10 9 11 14 17 19 16 14 9 9 9 11 17 16 16 12 14 15 12
3 3 4 6 6 5 4 7 9 9 8 6 7 6 7 7 7 7 7 6 6 6 7 8 8 9 9 11 17 16 17 19 11 9 15 17 18 14 11 15 15 11 8
2 3 4 5 5 5 5 6 8 8 7 6 6 5 6 7 7 6 5 5 6 6 7 8 8 8 8 9 9 10 11 14 12 10 12 14 15 12 12 10 9 8 8
2 3 3 4 5 6 8 8 7 7 6 6 5 5 5 5 6 6 4 5 3 4 5 6 7 8 10 12 15 12 11 11 11 10 9 9 10 10 10 8 7 7 8
2 3 3 4 6 7 9 9 7 6 5 4 4 3 4 4 5 5 5 6 6 9 11 11 10 7 12 16 18 17 16 18 17 10 9 10 10 10 9 8 7 7 7
Wind_Direction
260 137 125 106 94 80 69 50 51 54 69 76 84 84 76 71 62 58 55 54 50 44 44 20 357 346 323 300 294 286 294 282 277 296 300 290 274 270 259 241 245 269 290
63 96 101 95 98 94 86 81 78 73 75 92 97 102 116 106 113 89 61 54 56 49 43 25 356 341 329 326 327 327 306 289 297 291 305 301 296 264 257 250 261 272 278
65 69 74 75 79 79 86 92 90 87 89 105 105 98 87 67 37 17 15 6 17 25 25 12 359 346 344 330 328 324 313 307 304 231 259 290 293 306 263 252 255 262 263
55 62 68 69 73 79 87 93 97 99 107 114 111 113 110 104 305 294 303 327 356 358 1 359 353 338 325 317 313 326 307 302 302 288 241 249 274 291 297 269 246 250 254
61 67 69 75 77 79 84 89 90 81 66 64 79 87 82 86 289 313 338 344 340 334 332 327 316 307 297 292 291 294 288 283 286 285 275 268 264 253 268 287 277 254 246
61 64 63 67 67 63 67 71 76 59 34 41 46 67 72 353 343 344 337 329 316 309 310 307 297 290 285 284 281 273 270 268 270 271 261 255 254 248 249 273 285 282 269
61 66 64 63 64 61 53 49 60 48 31 39 37 35 32 18 351 335 324 319 314 309 305 308 303 297 288 286 281 277 273 265 264 267 267 261 257 250 248 262 282 289 283
60 62 54 46 37 35 33 39 53 48 34 32 27 31 31 23 2 344 323 309 301 299 297 303 298 290 286 289 283 282 276 271 267 273 271 269 263 252 246 250 268 281 282
39 39 30 25 24 31 32 31 34 32 26 25 29 33 23 9 344 324 308 301 299 303 309 304 294 287 283 280 278 276 273 271 269 268 265 264 261 252 248 244 246 261 279
30 26 20 19 22 31 31 32 37 39 30 25 18 5 350 337 323 314 311 305 297 294 297 297 293 291 289 284 278 278 276 274 272 269 267 264 264 258 251 247 247 245 258
21 17 17 21 29 35 36 33 24 14 6 360 354 349 340 333 323 309 303 301 295 293 295 297 297 296 293 289 284 283 284 282 280 277 276 275 272 267 262 257 251 243 240
12 13 17 24 30 26 19 14 6 1 352 345 343 337 329 323 313 301 295 296 297 295 295 296 295 295 295 295 294 293 294 291 289 287 284 280 276 268 262 254 249 246 240
352 352 357 4 6 2 359 358 356 349 341 337 330 320 311 306 303 298 294 297 300 300 299 298 300 305 309 307 306 305 301 294 289 287 283 279 274 267 258 251 247 244 243
326 335 344 350 352 350 349 346 343 338 330 323 314 307 302 300 301 300 298 302 305 305 307 314 319 321 319 320 329 325 315 304 296 292 290 287 280 272 263 253 242 234 233
329 333 340 341 341 340 339 338 331 326 321 316 313 309 305 303 305 307 308 310 313 316 324 328 326 324 323 330 334 329 325 318 310 305 302 300 300 297 286 270 241 226 224
304 308 324 345 342 339 335 333 327 324 322 319 317 316 316 318 318 316 315 316 317 320 327 327 325 323 322 322 328 331 322 319 315 314 313 311 309 312 305 287 266 240 227
282 295 338 354 340 330 324 320 318 320 322 318 317 318 320 320 319 321 325 324 323 323 323 321 324 324 324 329 329 326 324 317 319 321 323 325 322 319 307 289 269 248 235
294 345 6 343 324 313 313 313 315 318 318 316 317 320 323 323 327 333 339 336 327 325 322 328 333 333 336 339 336 336 334 327 332 334 334 334 331 331 326 298 268 234 223
17 38 345 310 309 312 316 319 318 318 318 321 326 330 334 336 339 344 340 332 330 335 338 342 344 343 339 347 355 356 341 339 341 341 343 345 343 342 343 335 353 94 83
72 347 307 308 309 311 319 322 323 324 327 331 334 337 344 346 346 340 333 334 342 346 348 347 348 347 348 354 0 1 349 347 344 343 346 348 352 355 2 11 48 82 86
190 301 313 306 302 312 326 329 330 333 332 333 338 345 353 352 352 346 347 355 358 355 356 355 357 360 358 357 359 1 360 351 347 349 347 344 354 8 14 27 51 71 88
327 318 308 301 304 319 332 331 331 328 328 338 352 357 2 6 3 3 2 4 3 358 356 0 4 1 357 358 355 357 2 4 360 354 349 348 357 13 25 38 48 61 78
303 297 298 306 311 321 329 322 319 325 330 346 2 3 5 7 5 8 2 357 1 3 358 1 1 357 357 354 353 356 2 7 8 357 357 359 7 13 23 31 43 57 74
303 313 318 320 317 319 319 307 308 318 332 348 356 1 6 3 2 2 0 3 2 359 1 4 0 357 357 359 3 5 6 5 4 359 357 1 8 20 20 24 43 57 67
325 328 325 319 316 320 316 309 309 319 331 339 346 352 357 360 358 356 355 1 359 358 6 359 353 1 9 6 12 19 16 10 3 1 11 14 14 17 16 20 46 60 70
342 340 339 334 323 317 309 308 307 306 309 317 324 332 339 351 357 349 350 17 28 23 21 12 10 5 10 9 13 14 16 11 4 18 22 16 12 13 11 16 34 57 73